Temp
17 18 18 18 18 18 18 18 18 18 18 18 18 18 18 18 18 18 17 17 17 16 16 16 15 15 15 15 14 14 14 13 13 13 12 12 12 12 12 12 12 12 12
18 18 18 18 18 18 18 18 18 18 18 18 18 18 18 18 18 18 18 17 17 17 16 15 15 15 14 14 14 14 14 14 14 13 13 13 12 12 12 12 12 12 12
18 18 18 18 18 18 17 17 17 17 17 18 18 18 18 18 18 18 18 18 17 17 17 16 16 15 15 15 15 14 14 14 14 14 14 13 13 13 12 12 12 12 12
18 18 18 18 18 17 17 17 17 17 17 18 18 18 18 18 18 18 18 18 18 17 17 17 17 16 16 15 15 15 14 14 15 15 14 14 14 13 13 13 12 12 11
18 18 18 19 18 18 17 17 17 17 18 18 18 18 18 18 18 18 18 18 18 18 17 17 17 17 16 16 16 16 15 15 14 14 14 13 14 14 13 12 12 12 12
19 18 18 18 18 18 18 18 18 17 17 18 18 18 18 18 18 18 18 18 17 17 17 18 18 17 17 16 16 16 15 15 15 14 13 13 14 14 14 13 12 12 12
19 19 19 19 18 18 19 18 18 17 17 17 17 17 18 18 17 17 17 17 17 17 17 17 17 16 16 16 16 16 16 15 15 14 14 14 13 13 13 12 12 12 11
19 19 19 19 19 19 18 18 18 17 17 17 16 16 15 16 16 16 17 17 17 17 17 16 16 16 16 16 16 16 15 15 14 14 14 14 14 13 13 13 12 12 12
19 20 19 19 19 19 18 18 17 17 17 16 16 15 14 15 14 15 15 15 15 16 16 15 15 15 15 16 16 15 15 14 14 14 13 13 13 13 13 13 12 12 12
18 20 19 18 18 17 16 16 16 16 16 15 15 15 15 14 14 14 14 14 15 15 15 15 14 14 14 15 14 15 14 14 14 13 13 12 12 12 13 13 13 13 12
18 18 17 17 16 16 16 17 17 17 17 16 15 15 14 14 14 14 14 13 13 14 13 14 13 13 13 14 13 13 14 14 13 13 13 12 12 12 12 13 13 13 12
18 17 17 17 16 16 16 15 16 16 15 15 15 14 14 14 14 13 13 13 13 14 13 13 13 12 12 12 12 12 13 13 13 12 12 11 11 12 11 12 13 13 13
16 16 16 16 16 16 16 16 16 15 15 14 15 15 14 14 14 14 14 13 12 12 12 12 12 11 11 11 11 10 11 12 11 11 11 10 11 11 10 12 13 13 13
16 15 16 16 16 16 16 15 15 14 14 14 14 14 14 14 14 14 13 13 12 11 10 12 11 10 10 10 10 9 10 11 10 10 10 10 10 9 9 10 11 11 11
16 16 16 16 15 15 15 14 14 14 14 13 13 13 13 13 13 13 12 13 12 13 11 11 11 9 8 9 8 8 8 9 10 9 9 8 9 9 9 9 10 9 9
16 16 15 15 15 14 14 14 13 13 13 13 12 12 12 12 11 11 12 12 12 12 13 11 9 9 8 7 7 7 7 7 8 8 8 7 8 7 8 8 8 8 8
15 15 15 14 14 13 13 13 13 12 12 12 11 11 9 10 10 10 11 11 12 11 11 8 8 7 7 6 6 6 6 6 6 7 6 6 7 6 6 6 6 6 5
14 14 13 13 13 12 12 11 11 11 11 10 10 9 8 9 9 10 10 10 10 10 10 8 7 6 5 6 5 5 5 5 5 6 5 5 5 5 5 4 5 5 5
13 12 12 12 11 11 10 10 10 10 9 9 9 9 8 8 9 9 9 9 9 9 9 8 5 5 5 4 4 4 4 4 4 4 4 4 5 4 4 3 4 4 4
12 11 11 11 10 10 9 9 9 9 9 8 8 8 7 7 7 7 7 8 8 7 7 7 5 4 4 4 4 3 2 3 3 3 3 3 3 2 2 2 3 3 3
10 10 10 9 9 9 8 8 8 8 8 7 7 6 6 6 6 6 6 6 6 6 6 6 5 4 3 3 3 3 2 2 2 3 2 2 2 2 2 2 2 3 3
9 9 9 8 8 7 6 6 7 6 6 5 5 5 4 5 5 5 5 5 5 5 5 5 5 5 5 4 3 3 2 0 1 2 2 2 2 2 2 2 2 2 2
8 8 7 7 7 6 5 5 4 4 4 4 4 3 4 4 4 4 4 4 4 4 4 4 4 5 5 5 5 3 2 2 2 2 1 1 1 1 1 1 0 0 1
7 7 6 6 6 5 4 3 2 3 3 3 3 3 2 3 3 3 3 3 3 3 4 3 4 4 4 5 5 5 4 3 1 2 1 1 0 0 0 0 -0 -0 0
6 6 5 6 5 4 4 3 3 3 3 2 2 2 2 2 2 2 2 1 1 2 2 2 2 3 3 4 3 4 2 1 -1 -0 -0 0 -1 -1 -1 -0 -1 -1 -0
5 5 5 4 4 4 3 3 3 3 2 2 2 2 1 1 1 1 1 1 1 1 1 1 2 2 2 2 2 2 3 2 1 -1 0 -0 -1 -1 -1 -1 -1 -1 -1
Height
838 842 845 848 851 853 856 858 860 862 864 866 867 868 869 869 870 871 872 873 873 874 874 874 874 873 874 874 873 873 873 873 874 873 874 874 873 873 873 873 873 873 872
839 842 845 847 850 853 855 858 859 861 863 864 866 867 868 869 870 870 871 872 873 873 873 874 874 874 874 874 875 874 874 873 874 874 874 873 873 873 874 873 874 874 873
838 841 845 847 849 852 855 857 859 861 862 863 864 866 867 868 869 870 870 871 873 874 874 874 873 873 874 874 875 874 874 874 873 874 874 874 874 874 875 875 874 875 875
837 839 842 845 849 851 854 856 859 860 861 862 863 864 864 865 867 868 868 869 870 871 872 873 873 873 873 874 874 874 873 873 872 873 873 874 874 874 874 875 875 875 875
835 838 840 843 846 849 851 854 857 859 859 861 862 862 863 863 864 865 867 867 868 868 869 871 872 872 872 872 872 872 871 870 871 871 872 873 873 873 874 875 876 876 875
834 837 840 842 844 846 849 851 853 856 858 859 860 860 860 861 861 862 864 865 865 865 866 867 868 869 870 870 870 870 870 869 869 869 869 869 870 871 872 872 874 875 876
832 835 838 840 842 843 845 848 851 853 855 858 859 858 856 858 857 858 859 861 862 863 864 864 864 865 866 867 868 868 868 867 867 868 867 867 867 867 869 871 872 873 875
829 831 834 836 838 841 844 847 850 853 855 858 860 860 857 858 856 855 856 857 858 859 860 861 862 862 864 865 864 864 864 864 865 864 864 865 865 865 866 867 870 870 872
826 829 832 835 836 839 841 844 848 851 854 856 858 860 859 859 856 854 854 855 855 856 857 858 859 861 861 862 862 860 861 861 863 862 863 862 862 863 862 864 865 867 869
823 826 830 833 835 835 838 843 847 850 852 852 855 854 856 857 858 857 854 854 854 855 855 855 857 859 858 859 859 858 857 858 859 861 860 860 860 860 860 860 860 861 864
817 823 828 831 834 837 839 839 840 844 846 847 847 848 850 852 852 853 852 852 852 853 854 854 855 856 855 855 856 855 855 855 856 857 858 857 856 856 856 854 854 855 859
814 820 823 824 825 832 832 835 839 841 843 845 846 848 848 848 850 852 852 851 851 851 851 850 850 852 853 853 855 853 852 852 852 853 855 856 854 854 853 850 846 848 853
812 817 820 822 825 826 830 833 835 838 841 843 846 846 848 847 849 849 850 848 849 847 848 847 847 848 848 850 850 852 853 849 852 852 856 853 852 854 852 848 843 843 847
811 815 818 821 825 828 831 833 835 839 841 843 845 846 846 846 846 846 848 847 846 843 844 844 843 844 845 846 848 848 849 847 852 852 851 854 853 853 853 850 846 844 846
812 814 818 821 826 829 830 832 834 837 839 840 841 843 842 842 841 841 842 842 842 839 838 838 841 840 841 843 845 846 847 845 849 850 851 849 851 853 854 852 852 851 851
812 816 819 821 824 826 828 829 832 834 836 837 837 838 837 838 837 837 838 838 837 837 835 834 835 837 838 841 842 843 843 844 847 847 849 850 849 852 853 854 853 853 854
812 814 816 817 822 826 827 828 830 831 833 835 834 834 833 834 834 834 834 833 832 832 831 831 833 834 835 839 840 841 842 844 844 846 847 849 849 852 852 854 853 853 855
809 812 816 817 821 825 827 829 829 829 831 831 831 832 832 832 832 832 830 828 829 829 828 829 831 831 834 833 838 839 841 842 842 844 845 847 849 851 852 853 853 854 855
809 812 815 817 822 822 827 826 827 828 828 829 829 829 829 829 828 828 827 827 827 826 825 826 826 828 830 832 834 837 838 840 843 843 844 845 847 848 850 852 852 853 854
809 811 813 817 819 822 824 824 826 826 826 827 826 827 827 827 826 826 826 826 825 824 824 823 823 824 827 829 832 834 837 838 840 842 843 845 846 847 848 851 851 851 852
807 809 812 816 818 821 823 823 823 824 824 825 826 826 825 824 824 824 824 824 823 822 821 822 821 822 824 825 827 829 833 836 837 838 841 842 846 848 847 848 848 849 851
805 807 813 816 818 819 822 821 822 823 823 823 823 822 822 822 821 821 821 821 821 820 820 819 819 819 820 821 824 827 831 835 837 836 836 839 843 846 846 847 846 847 849
806 809 813 814 816 818 819 821 822 823 822 821 820 819 819 819 819 818 818 818 818 818 817 817 816 816 816 818 820 823 826 829 831 833 835 837 840 843 844 845 845 846 848
807 811 812 813 814 815 818 820 821 821 821 819 818 817 817 816 816 815 815 815 814 814 814 814 814 814 815 815 817 819 820 826 829 830 833 836 837 839 841 843 843 846 846
807 811 810 809 811 815 817 819 818 819 818 817 815 815 813 814 814 812 812 813 812 812 812 811 812 812 812 813 815 816 820 824 827 829 831 834 835 836 839 840 842 844 845
806 808 807 809 809 811 814 815 815 816 816 815 813 812 811 812 812 811 810 811 811 811 811 811 811 811 811 811 813 814 817 818 822 827 828 831 832 835 837 837 839 841 843
Wind_Speed
23 21 19 17 16 14 13 12 11 10 7 5 4 3 3 4 4 4 3 2 2 1 0 0 1 2 2 2 3 4 4 5 4 5 4 5 6 7 7 8 9 10 11
22 20 19 17 15 13 11 10 10 9 7 5 4 4 4 4 5 5 5 5 4 4 3 2 2 2 1 1 1 1 1 2 3 2 3 4 4 6 6 7 7 7 9
21 20 18 17 14 13 11 10 10 8 7 7 6 5 7 6 6 6 7 6 6 6 6 5 6 6 6 4 5 5 3 2 1 1 1 2 3 4 4 4 5 6 7
21 20 19 15 14 13 11 11 10 9 7 7 7 7 7 7 7 8 8 8 7 7 7 7 6 5 5 6 6 7 10 7 7 5 3 3 4 4 3 2 3 5 5
23 20 19 17 15 14 13 11 11 10 9 9 9 9 10 10 9 9 9 9 10 9 9 9 8 7 6 6 7 7 5 10 13 11 10 8 6 6 6 4 3 3 3
21 20 18 18 17 16 15 14 14 12 11 10 11 11 10 10 10 9 10 10 9 9 9 9 10 11 9 7 7 8 6 4 6 13 15 14 11 8 8 10 7 6 4
21 20 18 18 19 20 19 17 15 14 13 11 9 9 9 11 11 13 13 12 11 11 10 13 13 13 11 8 5 7 9 8 6 4 8 16 16 15 13 13 12 10 8
22 21 21 20 19 19 18 16 16 12 9 8 3 4 3 0 2 1 6 13 14 11 11 13 13 12 12 10 6 8 9 8 8 7 6 6 10 15 18 17 17 14 12
21 18 20 19 17 16 18 17 16 13 6 2 6 3 2 3 3 1 0 2 8 10 10 10 10 12 11 10 8 7 9 8 7 7 6 6 7 7 10 20 20 19 16
22 20 21 19 16 15 13 11 8 8 9 9 7 6 12 8 3 3 2 0 1 4 6 7 10 11 10 11 10 8 7 7 8 8 8 7 7 9 11 12 18 22 21
23 20 19 16 9 7 10 11 15 15 17 18 17 12 10 11 17 6 2 2 5 8 10 11 13 14 14 12 11 8 8 7 7 9 9 7 7 8 12 15 19 19 24
20 21 18 17 12 17 15 15 15 15 11 13 15 10 10 4 5 7 4 7 8 15 17 17 18 18 16 13 12 9 9 6 6 5 5 4 2 1 7 8 13 21 22
18 18 16 14 9 5 5 5 6 6 9 10 11 13 14 16 18 17 14 8 9 12 11 19 21 21 18 15 12 9 7 2 1 6 8 8 7 4 11 13 9 15 18
12 11 9 7 5 4 4 4 6 6 6 9 13 17 16 15 16 18 19 10 4 8 12 11 17 22 19 16 12 10 6 5 8 9 6 2 2 3 9 11 11 16 24
11 11 9 7 7 7 6 7 8 10 11 10 11 12 14 16 16 15 19 22 15 5 3 11 14 18 18 16 14 11 9 8 10 8 5 4 8 5 0 5 6 10 13
9 8 8 8 6 4 4 4 5 7 9 10 10 12 13 14 14 14 15 17 18 17 6 9 15 13 16 16 14 12 10 9 8 8 9 5 4 4 4 3 3 5 5
9 6 4 3 2 3 4 5 5 5 6 7 8 10 11 11 12 12 14 14 14 16 10 7 11 14 15 16 14 14 11 9 5 5 7 6 5 6 5 6 6 10 12
6 5 5 3 2 2 2 2 3 3 5 6 7 8 9 10 9 11 13 13 13 14 11 8 9 12 14 18 16 13 12 9 7 7 7 6 5 8 9 7 8 8 8
8 8 6 6 4 2 1 2 4 4 5 6 7 8 9 9 10 11 12 12 12 11 9 8 8 12 11 16 16 15 12 10 8 8 9 9 8 7 8 8 7 7 8
11 9 7 5 3 2 1 2 3 4 5 6 7 7 8 9 10 11 11 11 10 9 9 8 8 9 12 15 19 18 15 14 13 11 10 8 8 9 8 7 7 7 7
11 9 7 5 5 2 2 3 5 6 7 7 7 8 8 9 9 10 10 10 10 9 8 9 6 6 8 12 22 20 18 16 14 13 12 11 10 10 10 10 8 7 8
9 8 6 5 3 2 2 4 6 6 7 8 9 9 10 10 10 10 9 9 8 10 12 11 12 9 13 14 19 20 18 11 5 14 15 13 13 12 10 9 7 7 8
9 8 7 5 2 1 2 4 5 7 8 8 9 9 8 8 9 9 10 9 9 9 10 12 14 16 13 17 18 22 22 16 9 9 17 13 13 12 10 10 8 8 8
8 7 4 2 1 1 1 3 3 8 9 10 9 8 9 9 9 10 10 11 11 10 10 11 12 13 14 11 16 19 22 19 11 10 15 7 13 11 11 11 11 10 8
8 6 3 0 0 1 1 2 5 8 10 12 9 9 8 10 9 8 7 9 8 6 6 6 8 8 8 9 14 15 17 17 4 8 14 6 10 11 12 12 13 10 8
7 5 1 2 1 1 2 4 6 8 10 10 9 7 7 7 8 6 6 6 7 6 4 3 3 5 6 7 10 13 17 22 9 6 14 12 11 10 5 13 15 13 10
Wind_Direction
168 167 167 168 171 175 180 182 182 179 186 203 224 238 242 230 234 229 228 209 185 180 175 113 90 91 82 78 82 82 92 100 99 104 106 102 104 100 93 84 75 68 63
173 175 176 176 178 181 185 189 188 189 193 209 227 244 260 264 255 253 248 245 240 240 244 242 251 249 239 209 238 130 113 108 99 115 137 133 129 116 106 94 86 74 65
182 181 183 185 186 189 191 193 195 207 230 242 236 247 260 264 271 268 252 254 257 260 264 258 255 253 243 264 272 281 288 256 181 244 217 178 166 143 122 107 99 85 72
191 190 191 193 193 197 200 207 215 226 240 250 251 256 257 259 260 260 251 248 247 255 266 272 273 269 274 271 282 274 242 245 243 233 242 248 221 196 173 159 132 111 90
197 200 203 200 199 200 204 209 223 236 254 255 260 265 270 265 266 258 255 259 251 255 258 260 269 271 276 282 296 309 301 250 248 237 226 226 228 228 212 206 190 161 121
205 210 212 206 207 210 214 222 227 239 247 253 259 264 266 265 262 263 258 259 256 252 254 244 243 250 257 271 293 316 325 316 281 250 237 229 227 236 233 216 210 203 187
210 210 214 215 217 219 222 225 230 232 236 248 260 265 261 263 248 251 249 252 254 253 250 247 244 239 237 245 270 302 310 314 304 294 270 249 232 232 229 222 213 208 207
211 214 217 220 222 225 224 223 225 225 242 246 278 280 359 18 104 345 260 242 242 247 246 252 247 229 231 244 255 288 293 297 299 296 284 264 253 249 231 229 220 211 207
212 214 222 219 216 218 219 220 221 222 227 244 236 302 19 275 323 325 64 216 222 233 248 252 236 225 226 248 266 275 279 289 297 300 295 291 283 275 252 235 225 215 207
217 223 225 221 219 216 215 221 216 224 254 251 253 257 266 254 257 294 232 194 290 252 241 243 224 224 231 243 262 272 270 277 286 291 292 296 288 281 274 266 247 225 209
220 224 222 219 212 236 233 224 232 235 249 258 236 247 244 250 253 257 318 273 275 254 247 233 230 239 238 240 252 257 272 279 287 286 287 295 287 284 282 264 248 240 215
211 217 218 238 232 240 238 240 252 256 248 243 253 236 232 198 208 238 252 257 255 274 246 237 240 240 242 246 250 263 260 278 292 283 285 290 278 353 8 337 263 228 222
214 212 213 214 235 244 244 258 272 229 248 245 245 257 263 258 258 255 250 261 249 247 239 237 240 241 237 237 239 246 261 261 115 112 106 121 134 79 37 11 345 216 211
196 188 179 174 182 198 238 237 215 223 231 253 262 274 272 273 275 275 264 250 272 228 237 243 242 236 234 228 229 228 222 192 175 176 192 303 312 10 56 57 80 116 130
160 156 160 166 192 213 230 231 236 256 268 273 279 281 279 281 280 278 280 271 251 271 235 241 235 233 225 221 214 213 204 188 207 215 227 238 269 272 356 94 111 100 114
164 173 179 187 203 223 240 249 260 273 283 289 290 290 293 295 294 288 281 277 276 258 270 228 229 232 218 213 206 205 194 193 210 242 253 230 248 222 221 210 144 123 137
172 181 198 188 213 256 270 280 277 285 299 305 311 311 314 313 305 304 293 284 282 266 268 233 223 224 206 209 203 195 194 201 212 250 230 231 215 221 219 180 163 130 127
172 171 168 163 190 224 274 285 299 307 309 319 322 319 325 316 306 307 300 290 279 270 248 205 208 196 210 201 206 199 197 197 198 218 211 214 225 231 214 189 183 179 156
163 154 147 140 153 135 256 329 337 336 335 332 326 323 321 316 312 310 304 296 287 275 248 219 186 194 197 196 192 195 194 192 190 197 199 196 202 201 201 200 186 175 172
152 144 136 140 136 141 50 11 350 346 345 335 326 320 317 316 315 308 302 297 286 270 251 222 191 179 192 196 201 195 190 190 189 195 201 198 205 197 187 192 194 189 187
142 136 129 129 117 89 18 360 352 344 338 327 316 310 311 313 316 309 297 292 284 270 247 226 200 187 185 177 200 204 202 197 199 201 205 210 214 215 205 207 208 207 211
135 131 141 135 118 72 350 358 344 350 346 336 328 319 315 315 312 309 295 290 284 276 262 245 231 217 220 212 207 205 198 181 204 214 208 207 214 218 215 214 205 204 200
145 144 149 144 129 66 350 333 324 339 339 340 333 325 321 309 302 302 300 294 292 286 274 270 252 239 232 231 219 206 201 200 194 200 201 201 212 214 210 201 183 194 193
155 162 158 157 135 20 329 346 313 341 337 339 327 320 314 306 296 293 288 289 288 284 278 266 260 256 251 244 229 226 213 203 195 190 191 198 203 203 202 194 184 203 205
165 178 184 270 145 174 314 311 308 322 330 336 334 319 313 306 298 294 292 292 289 283 283 269 259 252 240 230 223 211 197 184 164 196 198 205 193 190 195 196 199 206 214
181 193 239 274 270 258 274 295 307 307 314 325 330 322 316 303 298 281 295 290 288 287 278 272 246 230 203 187 198 205 214 193 164 194 208 195 185 179 182 211 210 216 215